Home   Weather   Sarh   Past weeks

Flag for Chad Past Weather in Sarh, Chad — Yesterday and Last 2 Weeks

Now
77 °F

Passing clouds.


Feels Like: 79 °F
Forecast: 69 / 82 °F
Wind: 7 mph from West

Location: Sarh Airport

Current Time: Jul 24, 2017 at 10:03:07 am

Latest Report: Jul 24, 2017 at 9:00 am


Visibility: N/A

Pressure: 29.98 "Hg

Humidity: 79%

Dew Point: 70 °F

Location of SarhLocation

Past Weather in Sarh — Graph

°F

Sarh Temperature Yesterday

Maximum temperature yesterday: 93 °F (at 3:00 pm)
Minimum temperature yesterday: 75 °F (at 6:00 am)
Average temperature yesterday: 84 °F

High & Low Weather Summary for the Past Weeks

 TemperatureHumidityPressure
High93 °F (Jul 20, 3:00 pm)100% (Jul 10, 7:00 am)30.09 "Hg (Jul 10, 7:00 am)
Low70 °F (Jul 10, 7:00 am)28% (Jul 20, 4:00 pm)29.80 "Hg (Jul 20, 4:00 pm)
Average80 °F80%29.95 "Hg
* Reported Jul 9 9:00 am — Jul 24 9:00 am, Sarh. Weather by CustomWeather, © 2017

Note: Actual official high and low records may vary slightly from our data, if they occured in-between our weather recording intervals... More about our weather records

Advertising

Sarh Weather History for the Previous 24 Hours

Scroll right to see more
 ConditionsComfort  
Time TempWeatherWind HumidityBarometerVisibility
9:00 am
Mon, Jul 24
77 °FPassing clouds.7 mph79%29.98 "HgN/A
8:00 am75 °FPassing clouds.9 mph83%29.98 "HgN/A
7:00 am73 °FScattered clouds.9 mph89%29.95 "HgN/A
6:00 am72 °FScattered clouds.5 mph100%29.92 "HgN/A
5:00 am72 °FPassing clouds.No wind100%29.92 "HgN/A
4:00 am73 °FThunderstorms. Passing clouds.No wind94%29.89 "HgN/A
11:00 pm
Sun, Jul 23
77 °FThundershowers. Passing clouds.14 mph79%29.98 "HgN/A
10:00 pm82 °FThundershowers. Passing clouds.7 mph79%29.92 "HgN/A
8:00 pm84 °FPassing clouds.No wind74%29.89 "HgN/A
7:00 pm86 °FPassing clouds.9 mph75%29.89 "HgN/A
6:00 pm88 °FPassing clouds.5 mph75%29.89 "HgN/A
4:00 pm91 °FScattered clouds.12 mph56%29.86 "HgN/A
3:00 pm93 °FScattered clouds.14 mph47%29.89 "HgN/A
2:00 pm91 °FScattered clouds.14 mph49%29.92 "HgN/A
1:00 pm91 °FScattered clouds.9 mph56%29.92 "HgN/A
12:00 pm90 °FScattered clouds.7 mph59%29.92 "HgN/A
11:00 am90 °FPassing clouds.12 mph59%29.95 "HgN/A
10:00 am86 °FSunny.14 mph66%29.98 "Hg10 mi
Weather by CustomWeather, © 2017

See weather overviewHow to use our weather pages